Regional Weather Roundup
Issued by NWS Jackson, KY

Home | Current Version | Previous Version | Text Only | Print | Product List | Glossary Off
Versions: 1 2 3 4 5 6 7 8 9 10 11 12 13 14 15 16 17 18 19 20 21 22 23 24 25 26 27

000
ASUS43 KJKL 261410
RWRJKL

EAST KENTUCKY HOURLY WEATHER ROUNDUP
NATIONAL WEATHER SERVICE JACKSON KY
1000 AM EDT FRI MAY 26 2017

NOTE: "FAIR" INDICATES FEW OR NO CLOUDS BELOW 12,000 FEET WITH
NO SIGNIFICANT WEATHER AND/OR OBSTRUCTIONS TO VISIBILITY.

* THESE REPORTS ARE NOT UNDER NWS QUALITY CONTROL AND MAY NOT
  REPORT WEATHER SUCH AS PRECIPITATION AND FOG.

KYZ079-080-083-085-087-088-110-112-115-119-120-261500
...EASTERN KENTUCKY...

CITY           SKY/WX    TMP DP  RH WIND       PRES   REMARKS
JACKSON        SUNNY     64  57  78 CALM      29.99R
LONDON         SUNNY     65  52  62 W9        30.01R
SOMERSET*      SUNNY     64  54  68 S7        30.02R
MONTICELLO*    SUNNY     69  57  65 W14       30.02R
WILLIAMSBURG*  SUNNY     66  57  72 SW3       30.02R
MIDDLESBORO*   SUNNY     68  54  60 NW10      30.02S
HARLAN APT*    SUNNY     64  54  68 SW5       30.03R
PIKE CO APT*     N/A     64  58  80 S7        29.99S
BIG SANDY APT* SUNNY     64  56  75 W7        29.98S
MOREHEAD APT*  SUNNY     66  57  72 VRB6      29.98R
ASHLAND*       SUNNY     64  57  77 NW5       29.93R
$$

KYZ035-036-041-042-044-050-067-078-099-261500
...CENTRAL KENTUCKY...

CITY           SKY/WX    TMP DP  RH WIND       PRES   REMARKS
MT STERLING*   SUNNY     64  55  72 W7        29.99R
FLEMING/MASON* SUNNY     67  59  75 W12       29.96R
DANVILLE*      SUNNY     68  54  60 W9G16     29.99S
LEXINGTON      SUNNY     66  55  67 W8        29.97R
FRANKFORT      SUNNY     67  55  65 VRB7      29.95R
LOUISVILLE     PTSUNNY   69  57  65 SW7       29.95R
LEBANON*         N/A     66  55  68 SW7       29.97S
GLASGOW*       SUNNY     68  56  65 S5        29.97F
BOWLING GREEN  SUNNY     70  59  68 S7        29.97R
$$

KYZ091>093-OHZ055-061-077-WVZ005-015-034-035-042-261500
...SOUTHERN OHIO/WEST VIRGINIA...

CITY           SKY/WX    TMP DP  RH WIND       PRES   REMARKS
COVINGTON      PTSUNNY   65  57  75 SW7       29.94R
COLUMBUS       MOSUNNY   65  56  72 W13       29.87R
DAYTON         MOSUNNY   65  53  65 W14       29.92R
WILMINGTON     SUNNY     64  57  78 W10       29.91R
HUNTINGTON     MOSUNNY   66  57  72 W8        29.94S
CHARLESTON     MOSUNNY   65  54  67 SW12G21   29.93R
PINEVILLE*     CLOUDY    62  57  84 MISG      30.03R
BECKLEY        CLOUDY    59  52  77 W15G23    29.97R
BLUEFIELD      CLOUDY    57  51  80 W10G26    30.00R
LOGAN CO APT*  PTSUNNY   63  57  82 W13       29.97R
$$

VAZ002-007-008-TNZ017-027-036-066-071-261500
...SOUTHWEST VIRGINIA/EAST TENNESSEE...

CITY           SKY/WX    TMP DP  RH WIND       PRES   REMARKS
WISE*          PTSUNNY   63  52  67 CALM      30.04S
JONESVILLE*      N/A     64  55  72 SW3       30.04S
ABINGDON*      MOSUNNY   63  58  83 W8        30.03R
BRISTOL        MOSUNNY   65  55  70 W8        30.03R
MORRISTOWN*    SUNNY     64  54  68 SW8       30.02S
SEVIERVILLE*   SUNNY     68  54  60 W6        30.03R
KNOXVILLE      MOSUNNY   66  54  65 W6        30.02R
LAFOLLETTE*    SUNNY     68  55  64 S5        30.05R
OAK RIDGE      SUNNY     66  53  63 W6        30.04R
CROSSVILLE     SUNNY     64  52  64 VRB5      30.05R
NASHVILLE      PTSUNNY   71  55  56 S8        29.98R
$$

...KEY TO REMARKS...
VSB - VISIBILITY IN MILES
WCI - WIND CHILL INDEX
HX  - HEAT INDEX

$$




USA.gov is the U.S. government's official web portal to all federal, state and local government web resources and services.